Dewpoint
30 30 30 32 33 33 34 34 32 34 39 43 47 54 56 57 55 58 58 55 54 54 54 55 56 56 56 56 57 57 58 59 59 59 59 59 59 59
30 30 30 32 33 33 34 34 35 35 39 42 45 51 54 55 55 58 60 56 53 52 52 53 54 55 55 55 55 55 56 57 58 58 58 58 59 59
29 30 31 32 32 33 34 34 36 37 38 42 44 49 52 53 54 57 57 59 56 51 51 51 51 52 52 53 53 53 54 54 55 56 57 58 58 58
28 29 31 32 32 33 33 34 35 37 38 40 41 45 47 50 52 56 58 59 59 52 51 50 50 50 50 50 51 51 52 52 52 53 54 55 56 58
29 29 31 31 31 32 33 33 34 36 39 40 40 43 44 44 48 55 57 58 59 52 50 49 49 50 49 49 50 50 50 50 50 50 51 51 52 53
29 30 31 31 31 32 32 32 34 35 36 37 38 39 41 41 43 55 54 58 56 56 54 53 51 49 49 48 49 49 49 49 49 49 49 48 48 49
29 29 31 33 35 34 32 32 32 33 34 34 35 37 36 38 38 44 55 56 55 57 56 55 54 54 51 48 50 49 48 48 49 49 48 47 47 47
27 29 30 32 32 34 34 34 33 32 32 32 32 34 34 35 36 46 53 52 50 48 56 54 56 55 54 55 49 47 47 47 47 48 48 47 46 46
28 28 28 30 31 31 33 32 33 34 32 34 32 32 33 35 37 47 52 50 42 42 54 53 57 56 56 55 46 46 45 46 46 46 46 46 45 44
27 28 28 29 30 30 30 30 31 32 33 34 34 34 34 36 40 43 41 40 41 40 42 50 50 55 57 57 46 46 45 45 45 45 45 45 44 43
24 26 28 29 31 31 28 29 29 30 32 34 35 35 35 35 36 41 40 45 38 36 38 44 39 43 42 42 46 45 44 45 45 45 45 45 44 43
23 24 27 28 30 30 28 27 26 28 30 30 32 33 34 35 34 35 36 36 36 36 36 38 36 40 38 38 40 42 44 41 44 45 45 45 44 49
22 23 24 27 28 27 28 28 28 29 29 30 29 31 32 33 34 34 34 33 33 32 36 38 36 35 37 35 36 38 40 41 43 43 42 42 43 45
22 23 23 24 25 27 25 27 27 27 28 27 27 27 29 31 32 34 34 33 33 32 34 37 36 38 37 33 35 35 36 39 39 39 40 39 38 37
22 22 23 23 23 23 25 25 24 24 25 25 25 26 28 30 31 32 33 34 33 32 31 32 34 34 34 33 32 32 34 34 37 36 37 36 36 36
20 20 20 21 20 21 21 22 23 23 23 23 24 27 28 27 28 30 30 31 31 31 32 31 31 32 31 31 32 31 32 31 34 35 34 34 34 34
19 18 18 18 18 19 19 20 21 22 22 23 22 23 23 24 24 26 27 27 27 28 29 32 32 29 28 29 28 29 30 31 32 32 32 31 32 32
17 16 16 17 17 18 18 18 19 19 20 20 20 20 20 21 21 22 22 22 22 23 25 28 30 29 29 27 30 27 28 28 31 31 32 29 29 31
16 17 16 17 17 17 17 17 18 18 18 19 19 19 18 18 20 19 19 19 19 20 20 22 23 24 22 20 24 28 24 26 27 28 29 28 27 29
17 17 16 17 17 17 17 17 17 18 18 18 18 19 19 17 17 18 18 18 18 18 18 18 19 20 19 20 20 23 28 23 24 24 26 27 29 30
17 17 17 17 17 16 17 17 18 17 18 18 18 18 19 17 17 17 16 17 16 16 16 17 18 22 22 23 18 18 22 23 22 23 23 23 23 23
18 18 18 17 17 17 16 16 16 16 17 17 17 17 18 18 17 16 17 16 15 16 16 18 18 16 15 15 16 17 17 19 20 20 22 21 20 18
17 18 17 17 17 16 16 15 14 14 16 16 17 17 16 17 17 17 17 17 15 15 15 15 15 15 13 12 14 15 13 15 16 16 16 18 15 16
Lifted_Index
11 11 11 11 12 14 14 11 8 7 5 4 2 2 2 3 4 4 3 1 -1 -0 1 2 2 3 3 3 3 3 3 3 3 3 4 4 4 4
12 12 11 11 11 13 13 10 7 6 5 4 2 2 3 4 4 4 3 1 -1 -0 1 2 2 3 3 3 3 3 4 4 4 4 4 4 4 4
12 12 11 11 11 11 11 9 6 5 4 3 2 2 3 4 4 4 2 0 -0 -0 1 2 2 3 3 3 3 4 4 4 4 4 4 4 4 4
12 12 11 10 10 10 9 7 6 5 4 3 2 3 4 4 5 4 2 1 -0 -0 0 1 2 3 3 3 4 4 4 4 4 4 4 4 5 5
13 12 11 10 10 9 8 6 5 5 4 3 2 3 4 5 5 4 2 1 0 0 0 1 2 2 3 3 3 3 4 4 4 4 4 5 5 5
13 12 12 11 11 10 8 6 5 4 4 3 3 3 5 5 5 4 3 2 1 0 0 1 1 2 2 3 3 3 3 3 4 4 4 4 5 5
12 13 13 13 13 12 10 7 5 4 3 3 3 4 4 4 5 4 3 2 1 1 0 0 1 2 2 2 2 3 2 2 3 3 3 3 4 4
12 13 13 14 14 13 12 9 6 4 3 3 3 4 4 4 4 3 3 2 2 1 1 1 1 2 2 2 2 2 2 2 2 2 2 2 3 3
13 13 14 14 14 13 12 10 7 5 4 4 4 4 4 4 3 3 3 2 2 1 1 1 1 1 2 2 2 2 2 2 2 2 2 2 2 2
14 14 14 15 14 13 11 9 8 7 7 7 6 6 6 5 4 3 2 2 2 1 1 1 1 1 1 2 2 2 2 2 2 2 1 1 1 1
15 15 15 15 14 13 11 10 9 9 10 10 9 9 8 6 4 3 3 2 2 1 1 2 2 2 2 2 2 2 2 2 2 2 1 1 1 1
15 15 16 16 15 14 12 11 10 10 11 10 9 9 8 7 6 5 4 3 2 2 2 2 3 3 3 3 3 3 3 2 2 2 1 1 1 1
16 16 16 16 16 14 13 12 11 11 10 9 8 8 8 8 8 8 7 5 4 3 3 3 3 3 3 3 3 3 3 3 2 2 2 1 1 1
17 17 17 17 17 16 15 14 12 11 10 10 9 9 9 10 11 11 10 9 8 6 6 5 4 4 3 3 3 3 3 3 3 2 2 2 2 2
18 18 18 18 18 17 16 15 14 13 11 11 11 12 12 13 13 13 13 12 11 10 10 9 8 7 5 5 5 5 5 5 5 5 5 4 4 4
18 18 18 18 18 18 18 18 17 16 15 14 14 15 15 15 14 14 14 13 11 12 13 14 13 12 10 10 9 9 9 9 10 11 10 9 9 10
18 18 17 18 18 18 19 19 19 19 18 18 18 18 17 16 16 16 15 13 12 13 15 16 16 15 15 15 14 14 14 15 16 16 15 14 15 16
17 17 17 17 18 18 19 19 19 20 20 20 20 20 20 19 19 19 18 16 15 16 17 18 17 16 15 16 18 19 18 19 19 19 18 17 17 19
17 17 17 18 18 19 19 19 20 20 21 21 21 22 22 21 21 21 21 20 20 20 21 21 19 17 16 16 19 22 22 21 21 20 20 20 21 22
17 17 18 18 18 19 19 20 20 20 21 21 21 21 21 21 21 22 22 22 22 22 23 23 23 22 20 19 21 24 25 25 24 23 23 23 24 24
17 18 18 19 19 19 20 20 20 20 20 20 21 21 21 21 21 21 22 22 22 22 22 23 25 25 25 23 23 25 27 28 27 26 26 25 25 24
18 18 19 19 19 20 20 20 20 20 20 20 20 21 21 21 21 21 21 21 22 22 22 23 24 25 25 24 24 25 26 28 28 28 28 27 26 25
19 19 19 20 20 20 20 20 20 20 20 20 20 21 21 21 21 21 21 21 22 22 22 22 23 23 23 23 23 24 25 27 27 28 28 29 28 27